Location: B�retswil
(47.3376°N, 8.8534°E)
Time: 17:46:33
(UTC+00:00)

Meteor 2-4 Rocket - Pass Details

Date: 03 March 2021
Orbit: 799 x 908 km, 81.2° (Epoch: 19 April)

Event Time Altitude Azimuth Distance (km) Brightness Sun altitude
Rises 18:45:30 0° 347° (NNW) 3,488 7.2 -16.5°
Reaches altitude 10° 18:47:56 10° 346° (NNW) 2,559 6.5 -16.9°
Maximum altitude 18:53:47 79° 262° (W) 921 3.9 -17.8°
Drops below altitude 10° 18:59:41 10° 176° (S) 2,583 6.1 -18.8°
Sets 19:02:09 0° 175° (S) 3,523 6.8 -19.2°
